Time,TemperatureF,DewpointF,PressureIn,WindDirection,WindDirectionDegrees,WindSpeedMPH,WindSpeedGustMPH,Humidity,HourlyPrecipIn,Conditions,Clouds,dailyrainin,SoftwareType,DateUTC
2013-01-14 00:01:00,10.8,5.0,30.43,SW,221,2.0,5.0,77,0.00,,---,0.00,VWS V14.01,2013-01-14 06:01:00,
2013-01-14 00:07:00,10.7,4.9,30.43,SW,221,1.0,2.0,77,0.00,,---,0.00,VWS V14.01,2013-01-14 06:07:00,
2013-01-14 00:13:00,10.6,4.8,30.43,SW,221,0.0,2.0,77,0.00,,---,0.00,VWS V14.01,2013-01-14 06:13:00,
2013-01-14 00:19:00,10.4,4.6,30.43,SW,221,0.0,2.0,77,0.00,,---,0.00,VWS V14.01,2013-01-14 06:19:00,
2013-01-14 00:25:00,10.2,4.4,30.43,SW,221,0.0,2.0,77,0.00,,---,0.00,VWS V14.01,2013-01-14 06:25:00,
2013-01-14 00:31:00,10.0,4.5,30.43,SW,221,0.0,2.0,78,0.00,,---,0.00,VWS V14.01,2013-01-14 06:31:00,
2013-01-14 00:37:00,9.9,4.4,30.43,SW,221,0.0,0.0,78,0.00,,---,0.00,VWS V14.01,2013-01-14 06:37:00,
2013-01-14 00:43:00,9.9,4.4,30.43,SW,221,0.0,0.0,78,0.00,,---,0.00,VWS V14.01,2013-01-14 06:43:00,
2013-01-14 00:49:00,9.9,4.4,30.43,SW,221,0.0,0.0,78,0.00,,---,0.00,VWS V14.01,2013-01-14 06:49:00,
2013-01-14 00:55:00,9.9,4.4,30.43,SW,221,0.0,0.0,78,0.00,,---,0.00,VWS V14.01,2013-01-14 06:55:00,
2013-01-14 01:01:00,9.8,4.3,30.43,SW,221,0.0,1.0,78,0.00,,---,0.00,VWS V14.01,2013-01-14 07:01:00,
2013-01-14 01:08:00,9.6,4.4,30.43,SW,221,0.0,2.0,79,0.00,,---,0.00,VWS V14.01,2013-01-14 07:08:00,
2013-01-14 01:14:00,9.6,4.4,30.43,SW,221,5.0,5.0,79,0.00,,---,0.00,VWS V14.01,2013-01-14 07:14:00,
2013-01-14 01:20:00,9.6,4.4,30.43,SW,221,4.0,5.0,79,0.00,,---,0.00,VWS V14.01,2013-01-14 07:20:00,
2013-01-14 01:26:00,9.9,4.7,30.43,SW,218,5.0,6.0,79,0.00,,---,0.00,VWS V14.01,2013-01-14 07:26:00,
2013-01-14 01:32:00,9.9,4.7,30.44,SW,215,6.0,6.0,79,0.00,,---,0.00,VWS V14.01,2013-01-14 07:32:00,
2013-01-14 01:38:00,10.0,4.8,30.43,SW,217,5.0,6.0,79,0.00,,---,0.00,VWS V14.01,2013-01-14 07:38:00,
2013-01-14 01:44:00,10.0,4.8,30.44,SW,217,5.0,6.0,79,0.00,,---,0.00,VWS V14.01,2013-01-14 07:44:00,
2013-01-14 01:50:00,9.9,4.7,30.44,SW,217,5.0,6.0,79,0.00,,---,0.00,VWS V14.01,2013-01-14 07:50:00,
2013-01-14 01:56:00,9.8,4.6,30.45,SW,217,6.0,6.0,79,0.00,,---,0.00,VWS V14.01,2013-01-14 07:56:00,
2013-01-14 02:02:00,9.9,4.7,30.45,SW,217,5.0,5.0,79,0.00,,---,0.00,VWS V14.01,2013-01-14 08:02:00,
2013-01-14 02:08:00,9.9,4.7,30.45,SW,217,5.0,6.0,79,0.00,,---,0.00,VWS V14.01,2013-01-14 08:08:00,
2013-01-14 02:14:00,9.6,4.4,30.45,SW,217,5.0,7.0,79,0.00,,---,0.00,VWS V14.01,2013-01-14 08:14:00,
2013-01-14 02:20:00,9.4,4.2,30.45,SW,217,4.0,7.0,79,0.00,,---,0.00,VWS V14.01,2013-01-14 08:20:00,
2013-01-14 02:26:00,9.4,4.2,30.46,SW,215,4.0,7.0,79,0.00,,---,0.00,VWS V14.01,2013-01-14 08:26:00,
2013-01-14 02:32:00,9.2,4.0,30.46,SW,215,4.0,5.0,79,0.00,,---,0.00,VWS V14.01,2013-01-14 08:32:00,
2013-01-14 02:39:00,9.1,4.2,30.46,SW,215,5.0,6.0,80,0.00,,---,0.00,VWS V14.01,2013-01-14 08:39:00,
2013-01-14 02:45:00,9.1,4.2,30.47,SW,215,4.0,6.0,80,0.00,,---,0.00,VWS V14.01,2013-01-14 08:45:00,
2013-01-14 02:51:00,9.2,4.3,30.47,SW,215,3.0,6.0,80,0.00,,---,0.00,VWS V14.01,2013-01-14 08:51:00,
2013-01-14 02:57:00,9.3,4.4,30.47,SW,215,4.0,6.0,80,0.00,,---,0.00,VWS V14.01,2013-01-14 08:57:00,
2013-01-14 03:03:00,9.3,4.1,30.47,SW,215,4.0,4.0,79,0.00,,---,0.00,VWS V14.01,2013-01-14 09:03:00,
2013-01-14 03:09:00,9.1,3.9,30.47,SW,215,3.0,4.0,79,0.00,,---,0.00,VWS V14.01,2013-01-14 09:09:00,
2013-01-14 03:15:00,8.8,3.6,30.48,SW,215,3.0,4.0,79,0.00,,---,0.00,VWS V14.01,2013-01-14 09:15:00,
2013-01-14 03:21:00,8.8,3.9,30.47,SW,215,5.0,6.0,80,0.00,,---,0.00,VWS V14.01,2013-01-14 09:21:00,
2013-01-14 03:27:00,8.9,4.0,30.48,SW,217,5.0,6.0,80,0.00,,---,0.00,VWS V14.01,2013-01-14 09:27:00,
2013-01-14 03:33:00,9.0,4.1,30.47,SW,217,5.0,5.0,80,0.00,,---,0.00,VWS V14.01,2013-01-14 09:33:00,
2013-01-14 03:39:00,9.2,4.3,30.48,SW,216,4.0,5.0,80,0.00,,---,0.00,VWS V14.01,2013-01-14 09:39:00,
2013-01-14 03:45:00,9.4,4.2,30.48,SW,217,4.0,5.0,79,0.00,,---,0.00,VWS V14.01,2013-01-14 09:45:00,
2013-01-14 03:51:00,9.4,4.2,30.48,SW,216,5.0,6.0,79,0.00,,---,0.00,VWS V14.01,2013-01-14 09:51:00,
2013-01-14 03:57:00,9.3,4.1,30.47,SW,219,4.0,6.0,79,0.00,,---,0.00,VWS V14.01,2013-01-14 09:57:00,
2013-01-14 04:03:00,9.2,4.3,30.47,SW,218,3.0,4.0,80,0.00,,---,0.00,VWS V14.01,2013-01-14 10:03:00,
2013-01-14 04:10:00,9.2,4.3,30.47,SW,218,3.0,5.0,80,0.00,,---,0.00,VWS V14.01,2013-01-14 10:10:00,
2013-01-14 04:16:00,9.1,4.2,30.47,SW,218,2.0,5.0,80,0.00,,---,0.00,VWS V14.01,2013-01-14 10:16:00,
2013-01-14 04:22:00,9.0,4.1,30.47,SW,218,4.0,5.0,80,0.00,,---,0.00,VWS V14.01,2013-01-14 10:22:00,
2013-01-14 04:28:00,8.9,4.0,30.46,SW,218,3.0,5.0,80,0.00,,---,0.00,VWS V14.01,2013-01-14 10:28:00,
2013-01-14 04:34:00,8.7,3.8,30.46,SW,218,3.0,4.0,80,0.00,,---,0.00,VWS V14.01,2013-01-14 10:34:00,
2013-01-14 04:40:00,8.5,3.6,30.46,SW,218,1.0,4.0,80,0.00,,---,0.00,VWS V14.01,2013-01-14 10:40:00,
2013-01-14 04:46:00,8.5,3.9,30.46,SW,218,0.0,4.0,81,0.00,,---,0.00,VWS V14.01,2013-01-14 10:46:00,
2013-01-14 04:52:00,8.6,4.0,30.47,SW,218,0.0,4.0,81,0.00,,---,0.00,VWS V14.01,2013-01-14 10:52:00,
2013-01-14 04:58:00,8.6,4.0,30.47,SW,218,0.0,4.0,81,0.00,,---,0.00,VWS V14.01,2013-01-14 10:58:00,
2013-01-14 05:04:00,8.4,3.8,30.46,SW,218,0.0,0.0,81,0.00,,---,0.00,VWS V14.01,2013-01-14 11:04:00,
2013-01-14 05:10:00,8.3,3.7,30.47,SW,218,0.0,0.0,81,0.00,,---,0.00,VWS V14.01,2013-01-14 11:10:00,
2013-01-14 05:16:00,8.5,3.9,30.47,SW,218,0.0,0.0,81,0.00,,---,0.00,VWS V14.01,2013-01-14 11:16:00,
2013-01-14 05:22:00,8.5,3.9,30.47,SW,218,0.0,0.0,81,0.00,,---,0.00,VWS V14.01,2013-01-14 11:22:00,
2013-01-14 05:28:00,8.5,3.9,30.47,SW,218,5.0,5.0,81,0.00,,---,0.00,VWS V14.01,2013-01-14 11:28:00,
2013-01-14 05:34:00,8.2,3.6,30.47,SW,217,3.0,5.0,81,0.00,,---,0.00,VWS V14.01,2013-01-14 11:34:00,
2013-01-14 05:40:00,8.0,3.4,30.47,SW,218,3.0,5.0,81,0.00,,---,0.00,VWS V14.01,2013-01-14 11:40:00,
2013-01-14 05:46:00,7.9,3.3,30.47,SW,217,4.0,5.0,81,0.00,,---,0.00,VWS V14.01,2013-01-14 11:46:00,
2013-01-14 05:52:00,7.9,3.6,30.47,SW,218,4.0,5.0,82,0.00,,---,0.00,VWS V14.01,2013-01-14 11:52:00,
2013-01-14 05:58:00,8.0,3.7,30.47,SW,218,2.0,5.0,82,0.00,,---,0.00,VWS V14.01,2013-01-14 11:58:00,
2013-01-14 06:04:00,7.9,3.6,30.48,SW,218,2.0,3.0,82,0.00,,---,0.00,VWS V14.01,2013-01-14 12:04:00,
2013-01-14 06:10:00,7.7,3.4,30.48,SW,218,0.0,3.0,82,0.00,,---,0.00,VWS V14.01,2013-01-14 12:10:00,
2013-01-14 06:16:00,7.7,3.4,30.48,SW,218,0.0,3.0,82,0.00,,---,0.00,VWS V14.01,2013-01-14 12:16:00,
2013-01-14 06:23:00,7.7,3.4,30.49,SW,217,3.0,6.0,82,0.00,,---,0.00,VWS V14.01,2013-01-14 12:23:00,
2013-01-14 06:29:00,7.7,3.4,30.49,SW,217,3.0,6.0,82,0.00,,---,0.00,VWS V14.01,2013-01-14 12:29:00,
2013-01-14 06:35:00,7.9,3.6,30.49,SW,217,4.0,5.0,82,0.00,,---,0.00,VWS V14.01,2013-01-14 12:35:00,
2013-01-14 06:41:00,7.9,3.6,30.49,SW,217,4.0,6.0,82,0.00,,---,0.00,VWS V14.01,2013-01-14 12:41:00,
2013-01-14 06:47:00,8.0,3.7,30.50,SW,217,5.0,6.0,82,0.00,,---,0.00,VWS V14.01,2013-01-14 12:47:00,
2013-01-14 06:53:00,8.1,3.8,30.50,SW,217,4.0,6.0,82,0.00,,---,0.00,VWS V14.01,2013-01-14 12:53:00,
2013-01-14 06:59:00,8.2,3.8,30.50,SW,215,3.0,6.0,82,0.00,,---,0.00,VWS V14.01,2013-01-14 12:59:00,
2013-01-14 07:05:00,8.2,3.8,30.50,SW,215,0.0,2.0,82,0.00,,---,0.00,VWS V14.01,2013-01-14 13:05:00,
2013-01-14 07:11:00,8.2,3.8,30.51,SW,216,4.0,5.0,82,0.00,,---,0.00,VWS V14.01,2013-01-14 13:11:00,
2013-01-14 07:17:00,8.4,4.3,30.51,SW,219,4.0,6.0,83,0.00,,---,0.00,VWS V14.01,2013-01-14 13:17:00,
2013-01-14 07:23:00,8.5,4.2,30.51,SW,216,4.0,7.0,82,0.00,,---,0.00,VWS V14.01,2013-01-14 13:23:00,
2013-01-14 07:29:00,8.4,4.1,30.51,SW,214,1.0,7.0,82,0.00,,---,0.00,VWS V14.01,2013-01-14 13:29:00,
2013-01-14 07:35:00,8.6,4.5,30.52,SW,214,0.0,0.0,83,0.00,,---,0.00,VWS V14.01,2013-01-14 13:35:00,
2013-01-14 07:41:00,8.7,4.6,30.52,SW,214,0.0,0.0,83,0.00,,---,0.00,VWS V14.01,2013-01-14 13:41:00,
2013-01-14 07:47:00,8.7,4.6,30.52,SW,214,0.0,0.0,83,0.00,,---,0.00,VWS V14.01,2013-01-14 13:47:00,
2013-01-14 07:53:00,8.6,4.5,30.52,SW,214,2.0,5.0,83,0.00,,---,0.00,VWS V14.01,2013-01-14 13:53:00,
2013-01-14 07:59:00,8.4,4.3,30.52,SW,214,2.0,6.0,83,0.00,,---,0.00,VWS V14.01,2013-01-14 13:59:00,
2013-01-14 08:05:00,8.4,4.3,30.53,SW,214,1.0,6.0,83,0.00,,---,0.00,VWS V14.01,2013-01-14 14:05:00,
2013-01-14 08:11:00,8.6,4.5,30.53,SW,214,0.0,6.0,83,0.00,,---,0.00,VWS V14.01,2013-01-14 14:11:00,
2013-01-14 08:17:00,8.7,4.6,30.53,SW,214,4.0,6.0,83,0.00,,---,0.00,VWS V14.01,2013-01-14 14:17:00,
2013-01-14 08:23:00,8.9,4.8,30.53,SW,215,2.0,6.0,83,0.00,,---,0.00,VWS V14.01,2013-01-14 14:23:00,
2013-01-14 08:30:00,9.1,5.0,30.53,SW,215,0.0,6.0,83,0.00,,---,0.00,VWS V14.01,2013-01-14 14:30:00,
2013-01-14 08:36:00,9.5,5.4,30.54,SW,215,0.0,0.0,83,0.00,,---,0.00,VWS V14.01,2013-01-14 14:36:00,
2013-01-14 08:42:00,9.9,5.5,30.54,SW,215,0.0,0.0,82,0.00,,---,0.00,VWS V14.01,2013-01-14 14:42:00,
2013-01-14 08:48:00,10.0,5.6,30.54,SW,215,0.0,0.0,82,0.00,,---,0.00,VWS V14.01,2013-01-14 14:48:00,
2013-01-14 08:54:00,10.4,6.0,30.54,SW,215,0.0,0.0,82,0.00,,---,0.00,VWS V14.01,2013-01-14 14:54:00,
2013-01-14 09:00:00,10.7,6.3,30.54,SW,214,0.0,0.0,82,0.00,,---,0.00,VWS V14.01,2013-01-14 15:00:00,
2013-01-14 09:06:00,11.0,6.6,30.54,SW,215,0.0,0.0,82,0.00,,---,0.00,VWS V14.01,2013-01-14 15:06:00,
2013-01-14 09:12:00,11.3,6.6,30.54,SW,215,0.0,0.0,81,0.00,,---,0.00,VWS V14.01,2013-01-14 15:12:00,
2013-01-14 09:18:00,11.6,7.2,30.55,SW,215,0.0,0.0,82,0.00,,---,0.00,VWS V14.01,2013-01-14 15:18:00,
2013-01-14 09:24:00,11.9,7.2,30.55,SW,215,0.0,0.0,81,0.00,,---,0.00,VWS V14.01,2013-01-14 15:24:00,
2013-01-14 09:30:00,12.2,7.5,30.55,SW,214,0.0,0.0,81,0.00,,---,0.00,VWS V14.01,2013-01-14 15:30:00,
2013-01-14 09:36:00,12.5,7.8,30.55,SW,215,0.0,0.0,81,0.00,,---,0.00,VWS V14.01,2013-01-14 15:36:00,
2013-01-14 09:42:00,12.9,8.2,30.55,SW,215,0.0,0.0,81,0.00,,---,0.00,VWS V14.01,2013-01-14 15:42:00,
2013-01-14 09:48:00,13.3,8.6,30.55,SW,214,0.0,0.0,81,0.00,,---,0.00,VWS V14.01,2013-01-14 15:48:00,
2013-01-14 09:54:00,13.8,9.1,30.55,SW,214,0.0,0.0,81,0.00,,---,0.00,VWS V14.01,2013-01-14 15:54:00,
2013-01-14 10:00:00,14.2,9.4,30.55,SW,214,0.0,0.0,81,0.00,,---,0.00,VWS V14.01,2013-01-14 16:00:00,
2013-01-14 10:06:00,14.5,9.7,30.55,SW,215,0.0,0.0,81,0.00,,---,0.00,VWS V14.01,2013-01-14 16:06:00,
2013-01-14 10:12:00,14.8,10.0,30.55,SW,215,0.0,0.0,81,0.00,,---,0.00,VWS V14.01,2013-01-14 16:12:00,
2013-01-14 10:18:00,15.2,10.4,30.54,SW,215,0.0,0.0,81,0.00,,---,0.00,VWS V14.01,2013-01-14 16:18:00,
2013-01-14 10:24:00,15.7,10.6,30.54,SW,215,0.0,0.0,80,0.00,,---,0.00,VWS V14.01,2013-01-14 16:24:00,
2013-01-14 10:36:00,16.5,11.4,30.54,SW,215,0.0,0.0,80,0.00,,---,0.00,VWS V14.01,2013-01-14 16:36:00,
2013-01-14 10:42:00,17.0,11.6,30.54,SW,215,0.0,1.0,79,0.00,,---,0.00,VWS V14.01,2013-01-14 16:42:00,
2013-01-14 10:48:00,17.5,11.8,30.54,SW,215,3.0,4.0,78,0.00,,---,0.00,VWS V14.01,2013-01-14 16:48:00,
2013-01-14 10:54:00,18.0,12.3,30.54,SW,215,0.0,4.0,78,0.00,,---,0.00,VWS V14.01,2013-01-14 16:54:00,
2013-01-14 11:01:00,18.6,12.6,30.54,SW,215,2.0,5.0,77,0.00,,---,0.00,VWS V14.01,2013-01-14 17:01:00,
2013-01-14 11:07:00,19.2,12.9,30.53,SW,215,3.0,4.0,76,0.00,,---,0.00,VWS V14.01,2013-01-14 17:07:00,
2013-01-14 11:13:00,19.4,12.8,30.53,SW,215,3.0,4.0,75,0.00,,---,0.00,VWS V14.01,2013-01-14 17:13:00,
2013-01-14 11:19:00,19.7,12.8,30.53,SW,217,2.0,5.0,74,0.00,,---,0.00,VWS V14.01,2013-01-14 17:19:00,
2013-01-14 11:25:00,20.0,13.1,30.53,SSW,211,3.0,6.0,74,0.00,,---,0.00,VWS V14.01,2013-01-14 17:25:00,
2013-01-14 11:31:00,20.5,13.5,30.53,SSW,211,6.0,7.0,74,0.00,,---,0.00,VWS V14.01,2013-01-14 17:31:00,
2013-01-14 11:37:00,20.9,13.6,30.53,SSW,211,2.0,8.0,73,0.00,,---,0.00,VWS V14.01,2013-01-14 17:37:00,
2013-01-14 11:43:00,21.3,14.0,30.52,SSW,213,0.0,8.0,73,0.00,,---,0.00,VWS V14.01,2013-01-14 17:43:00,
2013-01-14 11:49:00,21.7,14.4,30.51,SSW,210,6.0,8.0,73,0.00,,---,0.00,VWS V14.01,2013-01-14 17:49:00,
2013-01-14 11:55:00,22.0,14.1,30.51,SW,222,7.0,8.0,71,0.00,,---,0.00,VWS V14.01,2013-01-14 17:55:00,
2013-01-14 12:01:00,22.1,13.8,30.50,SSW,199,3.0,9.0,70,0.00,,---,0.00,VWS V14.01,2013-01-14 18:01:00,
2013-01-14 12:07:00,22.5,14.2,30.50,SW,223,6.0,7.0,70,0.00,,---,0.00,VWS V14.01,2013-01-14 18:07:00,
2013-01-14 12:13:00,22.9,14.3,30.49,SW,217,1.0,7.0,69,0.00,,---,0.00,VWS V14.01,2013-01-14 18:13:00,
2013-01-14 12:19:00,23.2,14.2,30.49,SW,225,1.0,7.0,68,0.00,,---,0.00,VWS V14.01,2013-01-14 18:19:00,
2013-01-14 12:25:00,23.5,14.5,30.48,WSW,238,1.0,7.0,68,0.00,,---,0.00,VWS V14.01,2013-01-14 18:25:00,
2013-01-14 12:31:00,23.6,14.3,30.48,SSW,206,5.0,7.0,67,0.00,,---,0.00,VWS V14.01,2013-01-14 18:31:00,
2013-01-14 12:37:00,23.9,14.9,30.48,SW,217,4.0,8.0,68,0.00,,---,0.00,VWS V14.01,2013-01-14 18:37:00,
2013-01-14 12:43:00,24.3,14.9,30.47,SSW,205,4.0,8.0,67,0.00,,---,0.00,VWS V14.01,2013-01-14 18:43:00,
2013-01-14 12:49:00,24.8,15.1,30.47,SSW,209,1.0,8.0,66,0.00,,---,0.00,VWS V14.01,2013-01-14 18:49:00,
2013-01-14 12:55:00,25.1,15.0,30.47,SSW,206,2.0,8.0,65,0.00,,---,0.00,VWS V14.01,2013-01-14 18:55:00,
2013-01-14 13:01:00,25.2,14.4,30.47,SW,219,5.0,8.0,63,0.00,,---,0.00,VWS V14.01,2013-01-14 19:01:00,
2013-01-14 13:07:00,25.5,14.3,30.46,SSW,211,2.0,7.0,62,0.00,,---,0.00,VWS V14.01,2013-01-14 19:07:00,
2013-01-14 13:13:00,25.6,14.0,30.45,SSW,206,2.0,7.0,61,0.00,,---,0.00,VWS V14.01,2013-01-14 19:13:00,
2013-01-14 13:20:00,25.6,14.0,30.45,SSW,211,4.0,7.0,61,0.00,,---,0.00,VWS V14.01,2013-01-14 19:20:00,
2013-01-14 13:26:00,25.6,13.7,30.45,SSW,210,5.0,9.0,60,0.00,,---,0.00,VWS V14.01,2013-01-14 19:26:00,
2013-01-14 13:32:00,25.7,14.1,30.45,SSW,207,2.0,4.0,61,0.00,,---,0.00,VWS V14.01,2013-01-14 19:32:00,
2013-01-14 13:38:00,26.0,14.4,30.44,SSW,207,5.0,7.0,61,0.00,,---,0.00,VWS V14.01,2013-01-14 19:38:00,
2013-01-14 13:44:00,26.2,14.2,30.44,SSW,209,5.0,8.0,60,0.00,,---,0.00,VWS V14.01,2013-01-14 19:44:00,
2013-01-14 13:50:00,26.4,14.0,30.44,SSW,211,7.0,8.0,59,0.00,,---,0.00,VWS V14.01,2013-01-14 19:50:00,
2013-01-14 13:56:00,26.4,13.6,30.45,SSW,206,5.0,8.0,58,0.00,,---,0.00,VWS V14.01,2013-01-14 19:56:00,
2013-01-14 14:02:00,26.7,13.9,30.45,SSW,207,0.0,4.0,58,0.00,,---,0.00,VWS V14.01,2013-01-14 20:02:00,
2013-01-14 14:08:00,27.0,14.2,30.44,SSW,208,2.0,7.0,58,0.00,,---,0.00,VWS V14.01,2013-01-14 20:08:00,
2013-01-14 14:14:00,27.3,14.5,30.44,SW,218,2.0,7.0,58,0.00,,---,0.00,VWS V14.01,2013-01-14 20:14:00,
2013-01-14 14:20:00,27.2,14.0,30.44,SW,219,5.0,8.0,57,0.00,,---,0.00,VWS V14.01,2013-01-14 20:20:00,
2013-01-14 14:26:00,27.1,14.3,30.44,SW,234,4.0,9.0,58,0.00,,---,0.00,VWS V14.01,2013-01-14 20:26:00,
2013-01-14 14:32:00,27.1,14.7,30.44,SSW,213,5.0,6.0,59,0.00,,---,0.00,VWS V14.01,2013-01-14 20:32:00,
2013-01-14 14:38:00,27.2,14.8,30.44,SW,219,6.0,9.0,59,0.00,,---,0.00,VWS V14.01,2013-01-14 20:38:00,
2013-01-14 14:44:00,27.4,14.2,30.44,SSW,206,0.0,9.0,57,0.00,,---,0.00,VWS V14.01,2013-01-14 20:44:00,
2013-01-14 14:50:00,27.4,14.2,30.44,SSW,210,0.0,9.0,57,0.00,,---,0.00,VWS V14.01,2013-01-14 20:50:00,
2013-01-14 14:56:00,27.5,14.3,30.44,SSW,213,2.0,9.0,57,0.00,,---,0.00,VWS V14.01,2013-01-14 20:56:00,
2013-01-14 15:02:00,27.6,14.0,30.44,SSW,211,0.0,2.0,56,0.00,,---,0.00,VWS V14.01,2013-01-14 21:02:00,
2013-01-14 15:08:00,27.8,13.3,30.44,SSW,211,1.0,7.0,54,0.00,,---,0.00,VWS V14.01,2013-01-14 21:08:00,
2013-01-14 15:15:00,28.1,13.6,30.44,WSW,242,3.0,7.0,54,0.00,,---,0.00,VWS V14.01,2013-01-14 21:15:00,
2013-01-14 15:21:00,28.3,13.8,30.44,WSW,242,1.0,7.0,54,0.00,,---,0.00,VWS V14.01,2013-01-14 21:21:00,
2013-01-14 15:27:00,28.5,14.0,30.44,SSW,203,1.0,7.0,54,0.00,,---,0.00,VWS V14.01,2013-01-14 21:27:00,
2013-01-14 15:33:00,28.4,13.0,30.44,SW,216,0.0,1.0,52,0.00,,---,0.00,VWS V14.01,2013-01-14 21:33:00,
2013-01-14 15:39:00,28.4,13.5,30.44,SW,219,1.0,2.0,53,0.00,,---,0.00,VWS V14.01,2013-01-14 21:39:00,
2013-01-14 15:45:00,28.2,12.9,30.44,SW,219,0.0,4.0,52,0.00,,---,0.00,VWS V14.01,2013-01-14 21:45:00,
2013-01-14 15:51:00,27.9,12.6,30.44,SW,219,0.0,4.0,52,0.00,,---,0.00,VWS V14.01,2013-01-14 21:51:00,
2013-01-14 15:57:00,27.5,12.6,30.44,SSW,207,0.0,4.0,53,0.00,,---,0.00,VWS V14.01,2013-01-14 21:57:00,
2013-01-14 16:03:00,27.3,12.9,30.44,SSW,206,0.0,1.0,54,0.00,,---,0.00,VWS V14.01,2013-01-14 22:03:00,
2013-01-14 16:09:00,27.1,12.7,30.44,SSW,213,1.0,4.0,54,0.00,,---,0.00,VWS V14.01,2013-01-14 22:09:00,
2013-01-14 16:15:00,27.2,13.2,30.44,SSW,213,0.0,4.0,55,0.00,,---,0.00,VWS V14.01,2013-01-14 22:15:00,
2013-01-14 16:21:00,27.2,13.2,30.44,SSW,213,5.0,5.0,55,0.00,,---,0.00,VWS V14.01,2013-01-14 22:21:00,
2013-01-14 16:27:00,26.9,13.3,30.44,SSW,213,2.0,5.0,56,0.00,,---,0.00,VWS V14.01,2013-01-14 22:27:00,
2013-01-14 16:33:00,26.7,13.5,30.44,SSW,213,0.0,1.0,57,0.00,,---,0.00,VWS V14.01,2013-01-14 22:33:00,
2013-01-14 16:39:00,26.6,13.4,30.44,SSW,213,0.0,4.0,57,0.00,,---,0.00,VWS V14.01,2013-01-14 22:39:00,
2013-01-14 16:45:00,26.5,13.7,30.44,SSW,213,0.0,4.0,58,0.00,,---,0.00,VWS V14.01,2013-01-14 22:45:00,
2013-01-14 16:51:00,26.2,13.1,30.44,SSW,213,0.0,4.0,57,0.00,,---,0.00,VWS V14.01,2013-01-14 22:51:00,
2013-01-14 16:57:00,25.8,13.1,30.44,SSW,213,0.0,4.0,58,0.00,,---,0.00,VWS V14.01,2013-01-14 22:57:00,
2013-01-14 17:03:00,25.2,12.9,30.44,SSW,213,0.0,0.0,59,0.00,,---,0.00,VWS V14.01,2013-01-14 23:03:00,
2013-01-14 17:09:00,24.5,12.6,30.44,SSW,213,0.0,1.0,60,0.00,,---,0.00,VWS V14.01,2013-01-14 23:09:00,
2013-01-14 17:15:00,24.0,12.5,30.44,SSW,213,0.0,1.0,61,0.00,,---,0.00,VWS V14.01,2013-01-14 23:15:00,
2013-01-14 17:22:00,23.6,12.1,30.44,SSW,213,1.0,3.0,61,0.00,,---,0.00,VWS V14.01,2013-01-14 23:22:00,
2013-01-14 17:28:00,23.3,12.2,30.43,SSW,213,0.0,3.0,62,0.00,,---,0.00,VWS V14.01,2013-01-14 23:28:00,
2013-01-14 17:34:00,22.9,11.8,30.44,SSW,213,2.0,2.0,62,0.00,,---,0.00,VWS V14.01,2013-01-14 23:34:00,
2013-01-14 17:40:00,22.7,12.0,30.44,SSW,213,0.0,2.0,63,0.00,,---,0.00,VWS V14.01,2013-01-14 23:40:00,
2013-01-14 17:46:00,22.6,11.9,30.44,SSW,213,3.0,3.0,63,0.00,,---,0.00,VWS V14.01,2013-01-14 23:46:00,
2013-01-14 17:52:00,22.6,11.9,30.44,SSW,213,2.0,3.0,63,0.00,,---,0.00,VWS V14.01,2013-01-14 23:52:00,
2013-01-14 17:58:00,22.7,12.0,30.44,SSW,213,1.0,3.0,63,0.00,,---,0.00,VWS V14.01,2013-01-14 23:58:00,
2013-01-14 18:04:00,22.9,12.2,30.44,SSW,213,2.0,2.0,63,0.00,,---,0.00,VWS V14.01,2013-01-15 00:04:00,
2013-01-14 18:10:00,22.9,11.8,30.44,SSW,213,1.0,3.0,62,0.00,,---,0.00,VWS V14.01,2013-01-15 00:10:00,
2013-01-14 18:16:00,22.9,11.8,30.44,SSW,213,1.0,3.0,62,0.00,,---,0.00,VWS V14.01,2013-01-15 00:16:00,
2013-01-14 18:22:00,23.0,11.9,30.45,SSW,213,0.0,3.0,62,0.00,,---,0.00,VWS V14.01,2013-01-15 00:22:00,
2013-01-14 18:28:00,23.0,11.9,30.45,SSW,213,0.0,3.0,62,0.00,,---,0.00,VWS V14.01,2013-01-15 00:28:00,
2013-01-14 18:34:00,22.9,11.8,30.45,SSW,213,0.0,0.0,62,0.00,,---,0.00,VWS V14.01,2013-01-15 00:34:00,
2013-01-14 18:40:00,22.7,12.0,30.45,SSW,213,0.0,0.0,63,0.00,,---,0.00,VWS V14.01,2013-01-15 00:40:00,
2013-01-14 18:46:00,22.4,11.7,30.45,SSW,213,0.0,0.0,63,0.00,,---,0.00,VWS V14.01,2013-01-15 00:46:00,
2013-01-14 18:52:00,21.8,11.2,30.45,SSW,213,0.0,0.0,63,0.00,,---,0.00,VWS V14.01,2013-01-15 00:52:00,
2013-01-14 18:58:00,21.0,10.8,30.45,SSW,213,0.0,0.0,64,0.00,,---,0.00,VWS V14.01,2013-01-15 00:58:00,
2013-01-14 19:04:00,20.4,10.5,30.45,SSW,213,0.0,0.0,65,0.00,,---,0.00,VWS V14.01,2013-01-15 01:04:00,
2013-01-14 19:10:00,19.9,10.7,30.45,SSW,213,0.0,0.0,67,0.00,,---,0.00,VWS V14.01,2013-01-15 01:10:00,
2013-01-14 19:16:00,20.0,11.1,30.45,SSW,213,0.0,0.0,68,0.00,,---,0.00,VWS V14.01,2013-01-15 01:16:00,
2013-01-14 19:22:00,20.3,11.4,30.45,SSW,213,0.0,0.0,68,0.00,,---,0.00,VWS V14.01,2013-01-15 01:22:00,
2013-01-14 19:28:00,20.1,10.9,30.45,SSW,213,0.0,0.0,67,0.00,,---,0.00,VWS V14.01,2013-01-15 01:28:00,
2013-01-14 19:35:00,19.7,10.5,30.45,SSW,213,0.0,0.0,67,0.00,,---,0.00,VWS V14.01,2013-01-15 01:35:00,
2013-01-14 19:41:00,19.7,10.9,30.45,SSW,213,0.0,0.0,68,0.00,,---,0.00,VWS V14.01,2013-01-15 01:41:00,
2013-01-14 19:47:00,19.7,10.9,30.45,SSW,213,0.0,0.0,68,0.00,,---,0.00,VWS V14.01,2013-01-15 01:47:00,
2013-01-14 19:53:00,19.7,10.9,30.45,SSW,213,0.0,0.0,68,0.00,,---,0.00,VWS V14.01,2013-01-15 01:53:00,
2013-01-14 19:59:00,19.4,10.6,30.45,SSW,213,0.0,0.0,68,0.00,,---,0.00,VWS V14.01,2013-01-15 01:59:00,
2013-01-14 20:05:00,18.8,10.0,30.45,SSW,213,0.0,0.0,68,0.00,,---,0.00,VWS V14.01,2013-01-15 02:05:00,
2013-01-14 20:11:00,18.1,9.7,30.45,SSW,213,0.0,0.0,69,0.00,,---,0.00,VWS V14.01,2013-01-15 02:11:00,
2013-01-14 20:17:00,17.6,9.5,30.45,SSW,213,0.0,0.0,70,0.00,,---,0.00,VWS V14.01,2013-01-15 02:17:00,
2013-01-14 20:23:00,17.2,9.4,30.45,SSW,213,0.0,0.0,71,0.00,,---,0.00,VWS V14.01,2013-01-15 02:23:00,
2013-01-14 20:29:00,17.1,9.6,30.45,SSW,213,0.0,0.0,72,0.00,,---,0.00,VWS V14.01,2013-01-15 02:29:00,
2013-01-14 20:35:00,16.9,9.4,30.45,SSW,213,0.0,0.0,72,0.00,,---,0.00,VWS V14.01,2013-01-15 02:35:00,
2013-01-14 20:41:00,16.9,9.8,30.45,SSW,213,0.0,0.0,73,0.00,,---,0.00,VWS V14.01,2013-01-15 02:41:00,
2013-01-14 20:47:00,17.7,10.8,30.44,SSW,213,0.0,2.0,74,0.00,,---,0.00,VWS V14.01,2013-01-15 02:47:00,
2013-01-14 20:53:00,18.9,11.7,30.44,SSW,213,0.0,2.0,73,0.00,,---,0.00,VWS V14.01,2013-01-15 02:53:00,
2013-01-14 20:59:00,18.8,11.3,30.44,SSW,213,0.0,2.0,72,0.00,,---,0.00,VWS V14.01,2013-01-15 02:59:00,
2013-01-14 21:05:00,18.5,10.7,30.44,SSW,213,0.0,0.0,71,0.00,,---,0.00,VWS V14.01,2013-01-15 03:05:00,
2013-01-14 21:11:00,18.1,10.6,30.44,SSW,213,0.0,0.0,72,0.00,,---,0.00,VWS V14.01,2013-01-15 03:11:00,
2013-01-14 21:17:00,18.7,11.5,30.44,SSW,213,0.0,0.0,73,0.00,,---,0.00,VWS V14.01,2013-01-15 03:17:00,
2013-01-14 21:23:00,19.7,12.1,30.44,SSW,213,0.0,0.0,72,0.00,,---,0.00,VWS V14.01,2013-01-15 03:23:00,
2013-01-14 21:29:00,20.4,12.2,30.43,SSW,213,0.0,0.0,70,0.00,,---,0.00,VWS V14.01,2013-01-15 03:29:00,
2013-01-14 21:35:00,20.8,12.2,30.44,SSW,213,0.0,0.0,69,0.00,,---,0.00,VWS V14.01,2013-01-15 03:35:00,
2013-01-14 21:41:00,21.0,12.1,30.44,SSW,213,0.0,0.0,68,0.00,,---,0.00,VWS V14.01,2013-01-15 03:41:00,
2013-01-14 21:47:00,21.1,12.2,30.44,SSW,213,0.0,0.0,68,0.00,,---,0.00,VWS V14.01,2013-01-15 03:47:00,
2013-01-14 21:54:00,20.9,12.0,30.44,SSW,213,0.0,0.0,68,0.00,,---,0.00,VWS V14.01,2013-01-15 03:54:00,
2013-01-14 22:00:00,20.7,11.8,30.43,SSW,213,0.0,0.0,68,0.00,,---,0.00,VWS V14.01,2013-01-15 04:00:00,
2013-01-14 22:06:00,20.7,11.8,30.43,SSW,213,0.0,0.0,68,0.00,,---,0.00,VWS V14.01,2013-01-15 04:06:00,
2013-01-14 22:12:00,20.8,11.9,30.43,SSW,213,0.0,0.0,68,0.00,,---,0.00,VWS V14.01,2013-01-15 04:12:00,
2013-01-14 22:18:00,20.9,12.0,30.44,SSW,213,0.0,0.0,68,0.00,,---,0.00,VWS V14.01,2013-01-15 04:18:00,
2013-01-14 22:24:00,20.9,12.0,30.43,SSW,213,0.0,0.0,68,0.00,,---,0.00,VWS V14.01,2013-01-15 04:24:00,
2013-01-14 22:30:00,20.9,11.7,30.43,SSW,213,1.0,2.0,67,0.00,,---,0.00,VWS V14.01,2013-01-15 04:30:00,
2013-01-14 22:36:00,21.0,11.8,30.43,SSW,213,0.0,2.0,67,0.00,,---,0.00,VWS V14.01,2013-01-15 04:36:00,
2013-01-14 22:42:00,20.9,11.7,30.44,SSW,213,1.0,2.0,67,0.00,,---,0.00,VWS V14.01,2013-01-15 04:42:00,
2013-01-14 22:48:00,20.8,11.6,30.43,SSW,213,2.0,3.0,67,0.00,,---,0.00,VWS V14.01,2013-01-15 04:48:00,
2013-01-14 22:54:00,20.8,11.6,30.43,SSW,213,0.0,3.0,67,0.00,,---,0.00,VWS V14.01,2013-01-15 04:54:00,
2013-01-14 23:02:00,20.8,11.6,30.43,SSW,213,1.0,1.0,67,0.00,,---,0.00,VWS V14.01,2013-01-15 05:02:00,
2013-01-14 23:06:00,20.8,11.9,30.43,SSW,213,0.0,1.0,68,0.00,,---,0.00,VWS V14.01,2013-01-15 05:06:00,
2013-01-14 23:08:00,20.7,11.8,30.43,SSW,213,0.0,1.0,68,0.00,,---,0.00,VWS V14.01,2013-01-15 05:08:00,
2013-01-14 23:14:00,20.6,11.7,30.43,SSW,213,0.0,1.0,68,0.00,,---,0.00,VWS V14.01,2013-01-15 05:14:00,
2013-01-14 23:18:00,20.6,11.7,30.43,SSW,213,0.0,1.0,68,0.00,,---,0.00,VWS V14.01,2013-01-15 05:18:00,
2013-01-14 23:24:00,20.4,11.5,30.43,SSW,213,0.0,1.0,68,0.00,,---,0.00,VWS V14.01,2013-01-15 05:24:00,
2013-01-14 23:30:00,20.3,11.4,30.43,SSW,213,0.0,1.0,68,0.00,,---,0.00,VWS V14.01,2013-01-15 05:30:00,
2013-01-14 23:36:00,20.1,11.6,30.43,SSW,213,0.0,0.0,69,0.00,,---,0.00,VWS V14.01,2013-01-15 05:36:00,
2013-01-14 23:43:00,19.9,11.4,30.43,SSW,213,0.0,0.0,69,0.00,,---,0.00,VWS V14.01,2013-01-15 05:43:00,
2013-01-14 23:49:00,19.7,11.2,30.43,SSW,213,0.0,0.0,69,0.00,,---,0.00,VWS V14.01,2013-01-15 05:49:00,
2013-01-14 23:55:00,19.7,11.5,30.43,SSW,213,0.0,1.0,70,0.00,,---,0.00,VWS V14.01,2013-01-15 05:55:00,